STARLINK-4081 (52660 NORAD) Tracking and Keplerian Element Data

This shows tracking and keplerian element data for the satellite.

Feedback or suggestion? Click here.




ElementValue
Catalog52660
NameSTARLINK-4081
Epoch Orbit130
Epoch Day192.91667824
Epoch Year2022
RAAN35.3713
Inclination53.2174
Eccentricity0.0001508
Argument of Perigee51.8435
Mean Anonmoly303.2873
Mean Motion15.1866696
Decay Rate-0.00724479
L11 52660U 22053E 22192.91667824 -.00724479 00000+0 -37063-1 0 9994
L22 52660 53.2174 35.3713 0001508 51.8435 303.2873 15.18666960 1303

Live tracking and technical data element details for STARLINK-4081 (NORAD 52660). STARLINK-4081 can be tracked NOW for your location showing map with azimuth and elevation plus other details from your city location.

Track the satellite on the map from your city or location and see movement details for azimuth, elevation, latitude, longitude, range, height, and movement on the map or in text.







IsCatalogInMostPopularTable: catalog: 52660, numindb: 5
Update: records affected: 1



GetName: 52660 STARLINK-4081

Hit Count: updated at: Sun, 14 Aug 2022 01:34:20 GMT